Terminal Aerodrome Forecast
Issued by NWS

Home | Current Version | Previous Version | Text Only | Print | Product List | Glossary Off
Versions: 1 2 3 4 5 6 7 8 9 10 11 12 13 14 15 16 17 18 19 20 21 22 23 24 25 26 27 28 29 30 31 32 33 34 35 36 37 38 39 40 41 42 43 44 45 46 47 48 49 50

000
FTUS43 KLOT 231500 AAB
TAFGYY
TAF AMD
KGYY 231558Z 2316/2412 01017G28KT P6SM SCT015 SCT250
     FM232100 02015G25KT P6SM SCT025
     FM240000 02012G19KT P6SM FEW250
     FM240900 02009KT P6SM FEW250=

USA.gov is the U.S. government's official web portal to all federal, state and local government web resources and services.